Volver al catálogo

STARLINK-37079

ActivoComunicacionesVLEO
NORAD 68186·PAYLOAD·🇺🇸 United States

Lanzado Mar 14, 2026 desde Vandenberg Space Force Base

Loading…

Próximos Pases (próximas 24 horas)

TLE

ActualizadoSource: CelesTrak SupGP

Época: Sep 15, 2026, 03:06 UTC

1 68186C 26050V   26258.12965278  .00008373  00000+0  24736-3 0  2588
2 68186  53.1573 102.6360 0001199  79.2675  21.4657 15.34389581    12

Sigue STARLINK-37079 en tiempo real con AllMySat

Download on the App Store